User: anonymous   Login
Location: Unspecified
(0.0000°N, 0.0000°E)
Time: 23:35:50
(UTC+00:00)
Language:

MUOS - Orbit

View from above orbital plane
View from above orbital plane
View from above satellite
View from above satellite

Ground track
Ground track

The orbit data is extracted from the following two-line orbital elements,

1 38093U 12009A   18125.82793941 0.00000000  00000-0  00000-0 0    08
2 38093   2.9382 344.6995 0054475 180.0995 179.9129  1.00270000    04
Epoch (UTC): 05 May 2018 19:52:13
Eccentricity: 0.0054475
inclination: 2.9382°
perigee height: 35557 km
apogee height: 36016 km
right ascension of ascending node: 344.6995°
argument of perigee: 180.0995°
revolutions per day: 1.00270000
mean anomaly at epoch: 179.9129°
orbit number at epoch: 0

The dashed part of the orbit path shows where the satellite is in the earth's shadow,  

DLR